| time (UTC) | temp F | wind direction | speed MPH | gust MPH | rain 1hr in | rain 24hr in | rain mn in | humidity % | barometer mb |
| 20260506073026 | 41 | 229 | 1.0 | 3.0 | 0.00 | 0.11 | 0.00 | 68 | 1018.3 |
| 20260506071510 | 42 | 229 | 1.0 | 2.0 | 0.00 | 0.11 | 0.00 | 65 | 1018.5 |
| 20260506061510 | 44 | 208 | 3.0 | 7.0 | 0.00 | 0.11 | 0.11 | 48 | 1018.0 |
| 20260506044533 | 44 | 232 | 2.0 | 8.0 | 0.00 | 0.11 | 0.11 | 54 | 1017.2 |
| 20260506043008 | 46 | 250 | 2.0 | 6.0 | 0.00 | 0.11 | 0.11 | 51 | 1017.0 |
| 20260506041511 | 46 | 218 | 2.0 | 7.0 | 0.00 | 0.11 | 0.11 | 52 | 1016.7 |
| 20260506040022 | 45 | 225 | 2.0 | 5.0 | 0.00 | 0.11 | 0.11 | 52 | 1016.5 |
| 20260506034525 | 45 | 250 | 2.0 | 5.0 | 0.00 | 0.11 | 0.11 | 53 | 1016.4 |
| 20260506033013 | 45 | 227 | 2.0 | 6.0 | 0.00 | 0.11 | 0.11 | 52 | 1016.1 |
| 20260506031529 | 45 | 237 | 2.0 | 5.0 | 0.00 | 0.11 | 0.11 | 52 | 1015.8 |
| 20260506030021 | 46 | 252 | 2.0 | 4.0 | 0.00 | 0.11 | 0.11 | 51 | 1015.6 |
| 20260506024532 | 47 | 244 | 1.0 | 4.0 | 0.00 | 0.11 | 0.11 | 49 | 1015.4 |
| 20260506023014 | 48 | 246 | 1.0 | 3.0 | 0.00 | 0.11 | 0.11 | 47 | 1015.3 |
| 20260506021521 | 49 | 246 | 1.0 | 4.0 | 0.00 | 0.11 | 0.11 | 45 | 1014.9 |
| 20260506020025 | 50 | 244 | 1.0 | 4.0 | 0.00 | 0.12 | 0.11 | 45 | 1014.6 |
| 20260506014527 | 51 | 275 | 2.0 | 8.0 | 0.00 | 0.12 | 0.11 | 43 | 1014.5 |
| 20260506013013 | 51 | 299 | 1.0 | 3.0 | 0.00 | 0.15 | 0.11 | 41 | 1014.4 |
| 20260506011520 | 52 | 350 | 1.0 | 4.0 | 0.00 | 0.15 | 0.11 | 36 | 1014.2 |
| 20260506010047 | 53 | 290 | 1.0 | 6.0 | 0.00 | 0.15 | 0.11 | 34 | 1014.1 |
| 20260506004528 | 52 | 325 | 2.0 | 10.0 | 0.00 | 0.15 | 0.11 | 38 | 1014.0 |
| 20260506003014 | 52 | 323 | 2.0 | 8.0 | 0.00 | 0.15 | 0.11 | 38 | 1013.9 |
| 20260506001522 | 50 | 290 | 3.0 | 9.0 | 0.00 | 0.15 | 0.11 | 44 | 1013.9 |
| 20260506000026 | 50 | 313 | 4.0 | 10.0 | 0.00 | 0.15 | 0.11 | 45 | 1013.8 |
| 20260505234530 | 50 | 334 | 4.0 | 12.0 | 0.00 | 0.15 | 0.11 | 45 | 1013.8 |
| 20260505233019 | 51 | 324 | 3.0 | 12.0 | 0.00 | 0.15 | 0.11 | 48 | 1013.7 |
| 20260505231525 | 50 | 338 | 5.0 | 14.0 | 0.00 | 0.15 | 0.11 | 48 | 1013.8 |
| 20260505230037 | 50 | 348 | 4.0 | 10.0 | 0.00 | 0.15 | 0.11 | 46 | 1013.7 |
| 20260505224533 | 52 | 13 | 4.0 | 12.0 | 0.00 | 0.15 | 0.11 | 36 | 1013.5 |
| 20260505223021 | 54 | 15 | 4.0 | 8.0 | 0.00 | 0.15 | 0.11 | 33 | 1013.5 |
| 20260505221508 | 52 | 15 | 4.0 | 12.0 | 0.00 | 0.15 | 0.11 | 35 | 1013.5 |
| 20260505220007 | 52 | 321 | 4.0 | 9.0 | 0.00 | 0.15 | 0.11 | 35 | 1013.5 |
| 20260505214516 | 52 | 256 | 1.0 | 4.0 | 0.00 | 0.15 | 0.11 | 41 | 1013.6 |
| 20260505213026 | 51 | 344 | 1.0 | 4.0 | 0.00 | 0.15 | 0.11 | 47 | 1013.6 |
| 20260505211506 | 51 | 5 | 3.0 | 7.0 | 0.00 | 0.15 | 0.11 | 41 | 1013.6 |
| 20260505210012 | 50 | 232 | 2.0 | 5.0 | 0.00 | 0.15 | 0.11 | 48 | 1013.5 |
| 20260505204520 | 49 | 266 | 2.0 | 4.0 | 0.00 | 0.15 | 0.11 | 53 | 1013.7 |
| 20260505203003 | 48 | 166 | 1.0 | 8.0 | 0.00 | 0.15 | 0.11 | 53 | 1013.7 |
| 20260505201510 | 46 | 89 | 2.0 | 4.0 | 0.00 | 0.15 | 0.11 | 53 | 1013.7 |
| 20260505200014 | 47 | 5 | 2.0 | 7.0 | 0.00 | 0.15 | 0.11 | 53 | 1013.9 |
| 20260505194519 | 45 | 62 | 0.0 | 8.0 | 0.00 | 0.15 | 0.11 | 55 | 1014.2 |
| 20260505193004 | 45 | 28 | 3.0 | 8.0 | 0.00 | 0.15 | 0.11 | 57 | 1014.1 |
| 20260505191507 | 44 | 242 | 1.0 | 6.0 | 0.00 | 0.15 | 0.11 | 67 | 1013.9 |
| 20260505190025 | 42 | 319 | 3.0 | 8.0 | 0.00 | 0.15 | 0.11 | 70 | 1013.8 |
| 20260505184522 | 42 | 327 | 2.0 | 8.0 | 0.00 | 0.15 | 0.11 | 74 | 1013.8 |
| 20260505183003 | 41 | 39 | 0.0 | 0.0 | 0.00 | 0.15 | 0.11 | 79 | 1013.7 |
| 20260505181512 | 40 | 53 | 0.0 | 4.0 | 0.00 | 0.15 | 0.11 | 80 | 1013.5 |
| 20260505180017 | 40 | 16 | 0.0 | 3.0 | 0.00 | 0.15 | 0.11 | 84 | 1013.2 |
| 20260505174523 | 40 | 13 | 0.0 | 3.0 | 0.00 | 0.15 | 0.11 | 85 | 1013.0 |
| 20260505173008 | 39 | 13 | 0.0 | 0.0 | 0.00 | 0.15 | 0.11 | 85 | 1012.8 |
| 20260505171514 | 38 | 11 | 0.0 | 3.0 | 0.00 | 0.15 | 0.11 | 85 | 1012.8 |
| 20260505170021 | 37 | 11 | 0.0 | 0.0 | 0.01 | 0.15 | 0.11 | 85 | 1012.6 |
| 20260505164524 | 36 | 11 | 0.0 | 3.0 | 0.01 | 0.15 | 0.11 | 85 | 1012.7 |
| 20260505163010 | 36 | 11 | 0.0 | 0.0 | 0.01 | 0.15 | 0.11 | 85 | 1012.4 |
| 20260505161515 | 35 | 11 | 0.0 | 2.0 | 0.02 | 0.15 | 0.11 | 85 | 1012.2 |
| 20260505153010 | 35 | 11 | 3.0 | 6.0 | 0.06 | 0.14 | 0.10 | 85 | 1011.7 |
| 20260505151524 | 35 | 276 | 0.0 | 0.0 | 0.06 | 0.13 | 0.09 | 84 | 1011.5 |
| 20260505124506 | 35 | 273 | 0.0 | 0.0 | 0.00 | 0.05 | 0.01 | 84 | 1010.2 |
| 20260505123013 | 35 | 273 | 0.0 | 0.0 | 0.00 | 0.05 | 0.01 | 84 | 1010.2 |
| 20260505121503 | 35 | 273 | 0.0 | 0.0 | 0.00 | 0.05 | 0.01 | 84 | 1010.2 |
| 20260505120021 | 35 | 273 | 0.0 | 0.0 | 0.00 | 0.05 | 0.01 | 84 | 1010.6 |
| 20260505114512 | 35 | 273 | 0.0 | 0.0 | 0.00 | 0.05 | 0.01 | 84 | 1010.6 |
| 20260505113020 | 36 | 273 | 0.0 | 0.0 | 0.00 | 0.05 | 0.01 | 84 | 1010.4 |
| 20260505111505 | 36 | 184 | 0.0 | 0.0 | 0.00 | 0.05 | 0.01 | 84 | 1010.6 |
| 20260505101509 | 36 | 78 | 0.0 | 0.0 | 0.01 | 0.05 | 0.01 | 84 | 1010.5 |
| 20260505100016 | 36 | 94 | 0.0 | 0.0 | 0.01 | 0.05 | 0.01 | 84 | 1010.6 |
| 20260505094513 | 36 | 96 | 0.0 | 0.0 | 0.01 | 0.05 | 0.01 | 84 | 1010.8 |
| 20260505093021 | 36 | 96 | 0.0 | 0.0 | 0.00 | 0.04 | 0.00 | 83 | 1010.9 |
| 20260505091511 | 36 | 96 | 0.0 | 0.0 | 0.00 | 0.04 | 0.00 | 83 | 1011.1 |
| 20260505090016 | 36 | 96 | 0.0 | 0.0 | 0.00 | 0.04 | 0.00 | 83 | 1011.2 |
| 20260505084516 | 36 | 96 | 0.0 | 0.0 | 0.00 | 0.04 | 0.00 | 83 | 1011.4 |
| 20260505083021 | 36 | 96 | 0.0 | 0.0 | 0.00 | 0.04 | 0.00 | 82 | 1011.5 |
| 20260505081510 | 36 | 92 | 0.0 | 4.0 | 0.00 | 0.04 | 0.00 | 81 | 1011.6 |